Terminal Aerodrome Forecast
Issued by NWS Shreveport, LA

Home | Current Version | Previous Version | Text Only | Print | Product List | Glossary On
Versions: 1 2 3 4 5 6 7 8 9 10 11 12 13 14 15
000
FTUS44 KSHV 192000 AAA
TAFSHV
TAF AMD
KSHV 192055Z 1921/2018 14009KT P6SM FEW060
     FM200100 12003KT P6SM FEW050 BKN250
     FM201500 15006KT P6SM BKN250=

USA.gov is the U.S. government's official web portal to all federal, state and local government web resources and services.